Location: Vale
(35.4830°N, 81.3830°W)
Time: 04:39:54
(UTC-04:00)

Cosmos 2237 Rocket - Visible Passes

Search period start: 30 June 2016 00:00
Search period end: 10 July 2016 00:00
Orbit: 834 x 851 km, 71.0° (Epoch: 28 June)

Date Brightness Start Highest point End Pass type
(mag) Time Alt. Az. Time Alt. Az. Time Alt. Az.
30 Jun 2.7 00:01:29 10° NNW 00:06:59 49° WSW 00:07:04 49° WSW visible
30 Jun 3.8 22:03:39 10° N 22:07:49 20° ENE 22:10:50 14° E visible
30 Jun 2.6 23:46:39 10° NNW 23:52:10 52° WSW 23:52:39 51° SW visible
01 Jul 3.9 21:48:55 10° N 21:52:58 19° ENE 21:56:27 12° E visible
01 Jul 2.5 23:31:48 10° NNW 23:37:22 55° WSW 23:38:17 49° SW visible
02 Jul 3.9 21:34:13 10° NNE 21:38:06 18° NE 21:41:59 10° E visible
02 Jul 2.5 23:16:57 10° NNW 23:22:33 58° WSW 23:23:56 46° SSW visible
03 Jul 4.0 21:19:30 10° NNE 21:23:15 18° NE 21:26:59 10° E visible
03 Jul 2.5 23:02:08 10° NNW 23:07:45 62° WSW 23:09:39 40° S visible
04 Jul 4.0 21:04:48 10° NNE 21:08:24 17° NE 21:11:59 10° E visible
04 Jul 2.4 22:47:18 10° NNW 22:52:56 65° WSW 22:55:23 34° S visible
05 Jul 2.4 22:32:28 10° NNW 22:38:08 69° WSW 22:41:10 28° S visible
06 Jul 2.3 22:17:38 10° NNW 22:23:19 73° WSW 22:27:00 23° S visible
07 Jul 2.3 22:02:48 10° NNW 22:08:31 77° WSW 22:12:54 17° SSE visible
08 Jul 2.3 21:47:58 10° NNW 21:53:42 81° WSW 21:58:50 13° SSE visible
09 Jul 2.3 21:33:09 10° NNW 21:38:53 85° WSW 21:44:33 10° SSE visible
